Change the Weather History Date:

Saturday, May 4, 2013

  Actual Average (KGUC) Record (KGUC)
Temperature  
Mean Temperature 46 °F -  
Max Temperature 62 °F 57 °F 75 °F (2000)
Min Temperature 30 °F 26 °F 21 °F (2008)
Degree Days  
Heating Degree Days 19    
Moisture  
Dew Point 21 °F    
Average Humidity 38    
Maximum Humidity 66    
Minimum Humidity 17    
Precipitation  
Precipitation 0.00 in - - ()
Sea Level Pressure  
Sea Level Pressure 30.22 in    
Wind  
Wind Speed 7 mph (East)    
Max Wind Speed 18 mph    
Max Gust Speed 29 mph    
Visibility 10 miles    
Events      
Averages and records for this station are not official NWS values.
T = Trace of Precipitation, MM = Missing Value Source: NWS Daily Summary

Daily Weather History Graph

Daily Weather History Graph

Search for Another Location

Airport or City:

Trip Planner

Search our weather history database for the weather conditions in past years. The results will help you decide how hot, cold, wet, or windy it might be!

Date:

Astronomy

May. 04, 2013 Rise Set
Actual Time 6:03 AM MDT 7:59 PM MDT
Civil Twilight 5:34 AM MDT 8:28 PM MDT
Nautical Twilight 4:59 AM MDT 9:03 PM MDT
Astronomical Twilight 4:21 AM MDT 9:41 PM MDT
Moon 2:59 AM MDT (5/4) 3:03 PM MDT (5/4)
Length of Visible Light 14h 53m
Length of Day
13h 55m
Waning Crescent, 26% of the Moon is Illuminated
May 4
Waning Crescent
May 9
New
May 17
First Quarter
May 24
Full
May 31
Last Quarter

Hourly Weather History & Observations

Time (MDT) Temp. Windchill Dew Point Humidity Pressure Visibility Wind Dir Wind Speed Gust Speed Precip Events Conditions
12:15 AM 43.9 °F 38.3 °F 17.6 °F 35% 30.23 in 10.0 mi East 10.4 mph - N/A   Clear
12:35 AM 43.2 °F 40.5 °F 17.6 °F 36% 30.23 in 10.0 mi ENE 4.6 mph 17.3 mph N/A   Clear
12:55 AM 42.4 °F 38.1 °F 18.0 °F 37% 30.24 in 10.0 mi ENE 6.9 mph - N/A   Clear
1:15 AM 41.5 °F 38.6 °F 18.0 °F 39% 30.23 in 10.0 mi ENE 4.6 mph - N/A   Clear
1:35 AM 41.2 °F 39.2 °F 17.8 °F 39% 30.22 in 10.0 mi East 3.5 mph - N/A   Clear
1:55 AM 41.4 °F - 17.6 °F 38% 30.22 in 10.0 mi Calm Calm - N/A   Clear
2:15 AM 39.7 °F 37.6 °F 17.6 °F 41% 30.21 in 10.0 mi ESE 3.5 mph - N/A   Clear
2:35 AM 38.7 °F 36.3 °F 18.0 °F 43% 30.22 in 10.0 mi ESE 3.5 mph - N/A   Clear
2:55 AM 38.5 °F - 18.0 °F 44% 30.22 in 10.0 mi Calm Calm - N/A   Clear
3:15 AM 36.0 °F - 17.8 °F 48% 30.22 in 10.0 mi Calm Calm - N/A   Clear
3:35 AM 34.5 °F 30.4 °F 18.1 °F 51% 30.22 in 10.0 mi SW 4.6 mph - N/A   Clear
3:55 AM 33.1 °F 30.0 °F 18.5 °F 55% 30.22 in 10.0 mi SW 3.5 mph - N/A   Clear
4:15 AM 33.8 °F 30.8 °F 19.0 °F 55% 30.22 in 10.0 mi SW 3.5 mph - N/A   Clear
4:35 AM 32.5 °F 29.3 °F 18.5 °F 56% 30.22 in 10.0 mi SW 3.5 mph - N/A   Clear
4:55 AM 32.7 °F 26.4 °F 19.4 °F 58% 30.22 in 10.0 mi WSW 6.9 mph - N/A   Clear
5:15 AM 32.2 °F 28.9 °F 19.2 °F 59% 30.22 in 10.0 mi WSW 3.5 mph - N/A   Clear
5:35 AM 31.8 °F 28.5 °F 19.0 °F 59% 30.22 in 10.0 mi WSW 3.5 mph - N/A   Clear
5:55 AM 30.9 °F - 18.7 °F 61% 30.22 in 10.0 mi Calm Calm - N/A   Clear
6:15 AM 30.2 °F - 18.3 °F 61% 30.23 in 10.0 mi Calm Calm - N/A   Clear
6:35 AM 30.7 °F - 18.7 °F 61% 30.23 in 10.0 mi Calm Calm - N/A   Clear
6:55 AM 32.9 °F - 19.6 °F 58% 30.24 in 10.0 mi Calm Calm - N/A   Clear
7:15 AM 34.3 °F - 19.8 °F 55% 30.24 in 10.0 mi Calm Calm - N/A   Clear
7:35 AM 35.4 °F - 20.1 °F 54% 30.24 in 10.0 mi Calm Calm - N/A   Clear
7:55 AM 37.6 °F - 20.5 °F 50% 30.24 in 10.0 mi Calm Calm - N/A   Clear
8:15 AM 39.0 °F - 20.1 °F 47% 30.24 in 10.0 mi Calm Calm - N/A   Clear
8:35 AM 41.0 °F - 20.1 °F 43% 30.24 in 10.0 mi Calm Calm - N/A   Clear
8:55 AM 41.4 °F - 18.7 °F 40% 30.23 in 10.0 mi Calm Calm - N/A   Clear
9:15 AM 44.1 °F - 19.4 °F 37% 30.23 in 10.0 mi Calm Calm - N/A   Clear
9:35 AM 45.5 °F 44.2 °F 17.6 °F 33% 30.22 in 10.0 mi NE 3.5 mph - N/A   Clear
9:55 AM 46.6 °F - 17.2 °F 31% 30.22 in 10.0 mi NNE 3.5 mph - N/A   Clear
10:15 AM 49.8 °F - 16.5 °F 27% 30.22 in 10.0 mi Calm Calm - N/A   Clear
10:35 AM 52.3 °F - 15.3 °F 23% 30.21 in 10.0 mi ESE 8.1 mph 19.6 mph N/A   Clear
10:55 AM 54.1 °F - 15.1 °F 21% 30.20 in 10.0 mi ESE 10.4 mph 18.4 mph N/A   Clear
11:15 AM 55.4 °F - 15.8 °F 21% 30.20 in 10.0 mi ESE 12.7 mph 20.7 mph N/A   Clear
11:35 AM 56.3 °F - 15.8 °F 20% 30.19 in 10.0 mi East 11.5 mph 19.6 mph N/A   Clear
11:55 AM 56.7 °F - 15.4 °F 20% 30.19 in 10.0 mi ESE 11.5 mph 18.4 mph N/A   Clear
12:15 PM 57.7 °F - 15.3 °F 19% 30.18 in 10.0 mi ESE 16.1 mph 23.0 mph N/A   Clear
12:35 PM 58.6 °F - 16.0 °F 19% 30.17 in 10.0 mi ESE 15.0 mph 19.6 mph N/A   Clear
12:55 PM 59.4 °F - 17.4 °F 20% 30.17 in 10.0 mi ESE 12.7 mph 19.6 mph N/A   Mostly Cloudy
1:15 PM 60.3 °F - 17.4 °F 19% 30.15 in 10.0 mi ESE 13.8 mph 19.6 mph N/A   Scattered Clouds
1:35 PM 61.0 °F - 17.4 °F 18% 30.15 in 10.0 mi East 11.5 mph 26.5 mph N/A   Clear
1:55 PM 62.1 °F - 17.2 °F 18% 30.15 in 10.0 mi East 11.5 mph 23.0 mph N/A   Scattered Clouds
2:15 PM 61.0 °F - 18.1 °F 19% 30.14 in 10.0 mi ESE 15.0 mph 23.0 mph N/A   Mostly Cloudy
2:35 PM 61.7 °F - 18.3 °F 19% 30.14 in 10.0 mi ESE 17.3 mph 23.0 mph N/A   Scattered Clouds
2:55 PM 61.9 °F - 18.0 °F 18% 30.14 in 10.0 mi ESE 16.1 mph 23.0 mph N/A   Clear
3:15 PM 62.4 °F - 17.2 °F 17% 30.14 in 10.0 mi SE 13.8 mph 24.2 mph N/A   Clear
3:35 PM 62.2 °F - 18.5 °F 18% 30.13 in 10.0 mi ESE 15.0 mph 23.0 mph N/A   Clear
3:55 PM 59.2 °F - 19.2 °F 21% 30.14 in 10.0 mi SE 18.4 mph 26.5 mph N/A   Mostly Cloudy
4:15 PM 60.3 °F - 19.4 °F 21% 30.14 in 10.0 mi SSE 13.8 mph 23.0 mph N/A   Overcast
4:35 PM 60.3 °F - 19.4 °F 21% 30.13 in 10.0 mi East 17.3 mph 23.0 mph N/A   Mostly Cloudy
4:55 PM 58.8 °F - 20.7 °F 23% 30.13 in 10.0 mi ESE 17.3 mph 24.2 mph N/A   Scattered Clouds
5:15 PM 58.5 °F - 20.5 °F 23% 30.14 in 10.0 mi ESE 12.7 mph 23.0 mph N/A   Scattered Clouds
5:35 PM 57.4 °F - 20.8 °F 24% 30.15 in 10.0 mi ESE 18.4 mph 26.5 mph N/A   Mostly Cloudy
5:55 PM 55.8 °F - 21.0 °F 26% 30.16 in 10.0 mi SE 17.3 mph 28.8 mph N/A   Overcast
6:15 PM 54.9 °F - 20.8 °F 27% 30.18 in 10.0 mi SE 15.0 mph 25.3 mph N/A   Overcast
6:35 PM 54.5 °F - 20.8 °F 27% 30.19 in 10.0 mi ESE 10.4 mph 23.0 mph N/A   Overcast
6:55 PM 53.6 °F - 21.9 °F 29% 30.21 in 10.0 mi SE 12.7 mph 19.6 mph N/A   Overcast
7:15 PM 53.2 °F - 27.9 °F 38% 30.23 in 10.0 mi North 6.9 mph - N/A   Overcast
7:35 PM 51.8 °F - 28.0 °F 40% 30.23 in 10.0 mi North 9.2 mph - N/A   Overcast
7:55 PM 51.4 °F - 27.3 °F 39% 30.24 in 10.0 mi ENE 6.9 mph - N/A   Overcast
8:15 PM 50.5 °F - 25.9 °F 38% 30.25 in 10.0 mi ENE 6.9 mph - N/A   Overcast
8:35 PM 49.5 °F - 27.0 °F 42% 30.27 in 10.0 mi NNE 5.8 mph - N/A   Overcast
8:55 PM 49.3 °F - 28.2 °F 44% 30.27 in 10.0 mi North 6.9 mph - N/A   Overcast
9:15 PM 48.2 °F - 28.4 °F 46% 30.29 in 10.0 mi NNW 9.2 mph - N/A   Overcast
9:35 PM 47.3 °F - 32.0 °F 55% 30.30 in 10.0 mi NW 9.2 mph - N/A   Overcast
9:55 PM 46.6 °F - 31.8 °F 56% 30.31 in 10.0 mi SW 4.6 mph - N/A   Overcast
10:15 PM 46.6 °F - 30.2 °F 53% 30.30 in 10.0 mi NW 8.1 mph - N/A   Mostly Cloudy
10:35 PM 45.3 °F 40.6 °F 32.0 °F 60% 30.31 in 10.0 mi North 9.2 mph - N/A   Scattered Clouds
10:55 PM 43.7 °F 42.1 °F 32.9 °F 66% 30.31 in 10.0 mi NW 3.5 mph - N/A   Mostly Cloudy
11:15 PM 43.7 °F 39.7 °F 32.4 °F 64% 30.31 in 10.0 mi NNW 6.9 mph - N/A   Overcast
11:35 PM 43.3 °F - 32.0 °F 64% 30.32 in 10.0 mi Calm Calm - N/A   Mostly Cloudy
11:55 PM 42.6 °F 39.0 °F 31.3 °F 64% 30.32 in 10.0 mi NNW 5.8 mph - N/A   Scattered Clouds